Location: Sungai Iban
(2.5500°N, 114.0333°E)
Time: 07:28:00
(UTC+00:00)

Daily predictions for brighter satellites

Satellite Brightness Start Highest point End
(mag) Time Altitude Azimuth Time Altitude Azimuth Time Altitude Azimuth
Skynet4D Del rocket 3.8 12:01:18 10° WSW 12:06:39 66° NNW 12:09:05 34° NE
Cosmos 1777 Rocket 4.0 12:01:53 10° SSW 12:07:06 79° WNW 12:12:17 10° N
Cosmos 1743 Rocket 3.9 12:03:25 10° N 12:06:51 52° NNE 12:06:51 52° NNE
SL-08 ROCKET BODY 4.3 12:03:12 10° N 12:08:54 57° E 12:08:56 57° E
H-2A R/B 3.9 12:05:15 10° SSW 12:09:17 26° WSW 12:13:17 10° NW
BREEZE M DEB (TANK) 3.2 12:09:26 10° NW 12:13:08 43° WNW 12:13:08 43° WNW
Cosmos 2315 Rocket 4.0 12:15:59 57° ENE 12:15:59 57° ENE 12:21:47 10° NNE
Cosmos 1500 Rocket 4.1 12:13:13 10° N 12:16:29 51° NNW 12:16:29 51° NNW
Cosmos 2208 Rocket 4.3 12:13:04 10° NNW 12:18:28 69° WSW 12:19:38 53° SSW
USA 142 4.4 12:13:51 10° WNW 12:18:27 45° SW 12:18:27 45° SW
SPELTRA 4.0 12:14:45 10° W 12:21:49 36° SSW 12:21:49 36° SSW
Okean-O 4.3 12:22:25 22° SW 12:24:19 30° WSW 12:28:11 10° NW
Meteor 1-26 Rocket 4.3 12:21:35 28° SSW 12:24:50 75° W 12:30:31 10° N
Meteosat 1 Rocket2 4.4 12:24:35 10° WSW 12:26:40 31° W 12:26:40 31° W
Cosmos 2278 Rocket 3.8 12:36:53 10° SW 12:41:54 33° WNW 12:46:53 10° NNW
BLOCK DM-SL 4.4 12:41:23 10° W 12:47:20 62° S 12:47:24 62° S
Ariane 3 Deb 4.0 12:39:57 10° W 12:50:21 51° NW 12:50:21 51° NW
Maqsat-H 4.4 13:10:56 10° WSW 13:15:26 22° SW 13:15:26 22° SW
CZ-3 Stage 3 4.4 19:39:41 24° NE 19:39:41 24° NE 19:40:50 10° NE
Milstar 3 3.1 19:39:40 68° E 19:39:40 68° E 19:47:52 10° ESE
Ariane H10+ 3.9 19:41:23 58° S 19:41:23 58° S 19:48:01 10° ESE
ATLAS 3B R/B 4.4 19:44:41 19° SE 19:47:04 23° ESE 19:52:03 10° ENE
USA 234 3.4 19:43:25 10° NE 19:49:25 70° E 19:49:25 70° E
COSMOS 2428 4.3 19:58:05 25° SE 20:00:01 30° ESE 20:04:55 10° NE
Cosmos 2360 Rocket 3.6 20:06:15 28° NNW 20:06:15 28° NNW 20:08:56 10° N
Cosmos 2219 Rocket 3.1 20:02:31 39° SE 20:03:30 43° ESE 20:08:48 10° NE
Cosmos 2263 Rocket 4.1 20:02:44 10° NNE 20:07:32 28° ENE 20:12:21 10° SE
Cosmos 1072 Rocket 4.4 20:02:08 10° N 20:08:29 87° WNW 20:08:29 87° WNW
ARIANE 5 DEB (SYLDA) 3.3 20:13:25 61° SE 20:13:25 61° SE 20:18:43 10° E
Ariane H10+ 4.0 20:14:47 18° ESE 20:14:47 18° ESE 20:16:08 10° E
Tsikada Rocket 4.2 20:22:09 51° WNW 20:22:09 51° WNW 20:27:33 10° N
Hubble Space Telescope 1.4 20:26:21 52° NE 20:26:21 52° NE 20:29:31 10° ENE
Cosmos 1455 3.6 20:24:48 10° N 20:26:59 32° N 20:26:59 32° N
CZ-3 R/B 4.5 19:47:13 10° WNW 20:33:02 41° SW 20:45:09 10° SSE
SJ-6F 4.2 20:35:21 10° N 20:39:23 80° WNW 20:39:23 80° WNW
BLOCK DM-SL R/B 3.5 20:32:14 31° W 20:39:31 75° S 20:43:37 10° E
ARIANE 5 R/B 2.8 20:41:59 34° S 20:42:02 34° S 20:49:20 10° ESE
Cosmos 2322 3.8 20:41:44 48° WSW 20:42:34 52° WNW 20:48:03 10° N
Palapa 6 Rocket 2.5 20:43:29 84° W 20:43:35 88° NNW 20:47:51 10° ENE
USA 215 4.0 20:37:58 10° S 20:42:21 31° SSW 20:42:21 31° SSW
Chandra Rocket (1) 3.7 20:44:14 24° SSW 20:45:50 27° SSE 20:48:51 10° ESE
ARIANE 3 DEB 4.2 20:46:46 30° S 20:46:50 30° S 20:50:00 10° ESE
Ariane H10 2.4 20:48:03 58° W 20:48:43 86° N 20:56:22 10° E
Cosmos 1484 Rocket 3.5 20:45:08 10° N 20:47:55 38° NW 20:47:55 38° NW
Cosmos 2227 4.4 20:45:01 10° N 20:50:36 73° ENE 20:56:12 10° SSE
Meteor 1-31 Rocket 3.6 20:47:25 10° NNE 20:51:14 51° ESE 20:54:49 11° S
ALOS 3.2 20:47:09 10° NNW 20:50:32 30° WNW 20:50:32 30° WNW
Ariane 44LP R/B 4.2 20:56:03 37° W 20:57:47 78° S 21:08:40 10° E
Cosmos 2333 Rocket 2.8 20:56:45 33° WSW 20:58:08 37° WNW 21:03:23 10° N
Cosmos 1408 4.5 20:55:26 10° SSE 20:58:35 29° E 21:01:42 10° NNE
OAO 3 Rocket 3.4 20:57:25 36° W 20:59:02 51° SW 21:03:49 10° SE
ARIANE 5 R/B 3.5 20:57:39 24° W 21:03:00 75° S 21:06:56 10° E
Aureole 1 Rocket 4.3 20:59:28 10° N 21:04:15 60° E 21:10:35 10° SSE
Cosmos 2034 Rocket 4.4 20:58:59 10° NNW 21:04:45 40° W 21:10:31 10° SSW
Cosmos 1825 Rocket 3.4 21:00:52 10° S 21:05:11 88° W 21:09:32 10° N
Centaur D-1A AC-32 3.4 21:03:33 19° SSW 21:05:21 27° SSE 21:08:29 10° E
Cosmos 1953 Rocket 4.4 21:01:32 10° S 21:05:50 51° E 21:10:05 10° NNE
Cosmos 2237 Rocket 3.2 21:05:31 10° S 21:10:57 47° ESE 21:16:20 10° NNE
Meteor 2-13 Rocket 4.3 21:06:27 10° S 21:12:29 76° W 21:18:31 10° N
Cosmos 1850 Rocket 3.9 21:07:13 10° NNW 21:12:30 72° WSW 21:17:46 10° S
Cosmos 1634 Rocket 4.0 21:07:56 10° N 21:14:10 89° E 21:20:28 10° S
Cosmos 2058 Rocket 4.2 21:13:39 10° NW 21:17:17 24° W 21:18:48 20° WSW
SL-24 R/B 4.0 21:17:03 10° S 21:20:30 39° W 21:23:56 10° NNW
Tianhe-1 1.0 21:19:16 15° WNW 21:21:42 57° SW 21:24:44 10° SE
CZ-2C R/B 2.9 21:19:07 10° NNW 21:21:51 25° NE 21:24:40 10° E
Cosmos 1741 Rocket 4.0 21:18:12 10° NNW 21:23:18 56° WSW 21:28:27 10° S
Cosmos-2242 4.3 21:29:05 10° NNE 21:33:12 45° E 21:37:23 10° SSE
ATLAS 3B R/B 3.3 21:32:01 11° SW 21:37:24 33° WNW 21:43:07 10° N
Cosmos 2142 Rocket 4.4 21:33:09 10° N 21:39:17 83° W 21:45:25 10° S
Landsat 5 3.6 21:35:09 10° S 21:39:39 78° WSW 21:44:04 10° NNW
COSMOS 2428 4.1 21:40:10 10° WSW 21:44:00 19° WNW 21:47:52 10° NNW
Cosmos 2219 Rocket 4.0 21:44:53 10° W 21:47:12 13° WNW 21:49:32 10° NW
Cosmos 2263 Rocket 3.4 21:47:09 10° WNW 21:51:10 20° WSW 21:55:12 10° SSW
Milstar 3 Cent rocket 3.6 21:43:05 10° SW 21:51:44 40° SSE 21:56:47 10° E
Aureole 3 3.4 21:49:47 10° NNW 21:52:29 31° W 21:55:11 10° SSW
Cosmos 1844 Rocket 3.8 21:47:59 10° N 21:53:27 51° ENE 21:58:55 10° SSE
YAOGAN 6 3.0 21:50:37 10° N 21:54:02 42° WNW 21:57:27 10° SSW
ARIANE 5 DEB (SYLDA) 3.5 21:50:01 10° W 21:55:49 68° S 22:02:28 10° E
BLOCK DM-SL R/B 3.8 21:56:42 10° W 22:04:48 68° S 22:08:34 10° E
